DW0602 Weather Reports


Display with metric or nautical units.
time (UTC)temp
F
wind
direction
speed
MPH
gust
MPH
rain 1hr
in
rain 24hr
in
rain mn
in
humidity
%
barometer
mb
20240303200116 48 294 6.0 13.0 0.00 0.00 0.00 32 1694.9
20240303195616 49 286 6.0 15.0 0.00 0.00 0.00 32 1694.9
20240303195116 49 168 6.0 16.0 0.00 0.00 0.00 32 1695.3
20240303194622 48 149 6.0 18.0 0.00 0.00 0.00 31 1695.3
20240303194614 49 224 6.0 18.0 0.00 0.00 0.00 32 1695.1
20240303193615 48 219 5.0 12.0 0.00 0.00 0.00 31 1695.3
20240303193114 48 170 6.0 13.0 0.00 0.00 0.00 33 1695.5
20240303192614 48 216 7.0 18.0 0.00 0.00 0.00 33 1695.7
20240303192113 47 227 8.0 18.0 0.00 0.00 0.00 33 1695.8
20240303191613 48 205 8.0 16.0 0.00 0.00 0.00 33 1695.7
20240303191111 48 169 6.0 13.0 0.00 0.00 0.00 34 1695.8
20240303190611 47 196 6.0 12.0 0.00 0.00 0.00 37 1695.7
20240303190111 45 214 6.0 11.0 0.00 0.00 0.00 40 1695.8
20240303185610 45 166 5.0 11.0 0.00 0.00 0.00 41 1696.0
20240303185112 44 168 5.0 12.0 0.00 0.00 0.00 41 1696.0
20240303184611 44 205 7.0 15.0 0.00 0.00 0.00 41 1696.2
20240303184111 44 158 7.0 15.0 0.00 0.00 0.00 42 1696.2
20240303183612 45 141 7.0 16.0 0.00 0.00 0.00 41 1696.2
20240303183112 45 172 8.0 20.0 0.00 0.00 0.00 40 1696.4
20240303182612 45 208 8.0 20.0 0.00 0.00 0.00 41 1696.2
20240303182111 46 164 7.0 16.0 0.00 0.00 0.00 41 1696.2
20240303181605 46 173 7.0 14.0 0.00 0.00 0.00 42 1696.2
20240303181106 44 181 8.0 16.0 0.00 0.00 0.00 44 1696.2
20240303180606 43 199 8.0 16.0 0.00 0.00 0.00 47 1696.4
20240303180105 41 140 8.0 13.0 0.00 0.00 0.00 50 1696.6
20240303175606 40 146 7.0 13.0 0.00 0.00 0.00 51 1696.8
20240303175111 40 155 6.0 13.0 0.00 0.00 0.00 51 1697.0
20240303174605 40 165 6.0 14.0 0.00 0.00 0.00 52 1697.0
20240303174104 40 160 7.0 18.0 0.00 0.00 0.00 52 1697.1
20240303173605 41 188 7.0 18.0 0.00 0.00 0.00 52 1697.0
20240303173338 41 184 7.0 14.0 0.00 0.00 0.00 53 1696.6
20240303172836 41 143 6.0 12.0 0.00 0.00 0.00 47 1696.6
20240303172104 41 182 7.0 14.0 0.00 0.00 0.00 44 1697.0
20240303171605 41 163 6.0 14.0 0.00 0.00 0.00 44 1697.1
20240303171104 42 213 4.0 12.0 0.00 0.00 0.00 44 1697.5
20240303170605 42 177 4.0 9.0 0.00 0.00 0.00 44 1697.3
20240303170101 41 140 3.0 7.0 0.00 0.00 0.00 45 1697.0
20240303165607 40 293 2.0 5.0 0.00 0.00 0.00 48 1697.0
20240303165559 40 170 3.0 7.0 0.00 0.00 0.00 47 1697.0
20240303164833 40 276 2.0 5.0 0.00 0.00 0.00 46 1697.1
20240303164058 40 249 2.0 7.0 0.00 0.00 0.00 46 1697.0
20240303163828 40 335 3.0 7.0 0.00 0.00 0.00 45 1697.1
20240303163327 40 278 3.0 7.0 0.00 0.00 0.00 45 1697.1
20240303162556 39 259 3.0 8.0 0.00 0.00 0.00 45 1697.1
20240303162328 38 316 3.0 8.0 0.00 0.00 0.00 46 1697.3
20240303161556 37 8 3.0 8.0 0.00 0.00 0.00 47 1697.0
20240303161326 36 276 3.0 10.0 0.00 0.00 0.00 47 1697.1
20240303160556 37 311 3.0 10.0 0.00 0.00 0.00 47 1697.0
20240303160056 37 313 4.0 9.0 0.00 0.00 0.00 47 1696.8
20240303155827 37 330 4.0 10.0 0.00 0.00 0.00 48 1696.6
20240303155054 36 326 4.0 10.0 0.00 0.00 0.00 50 1696.4
20240303154555 36 275 3.0 9.0 0.00 0.00 0.00 50 1696.6
20240303154055 35 309 2.0 7.0 0.00 0.00 0.00 52 1696.4
20240303153548 34 293 3.0 7.0 0.00 0.00 0.00 53 1696.0
20240303153041 33 275 3.0 7.0 0.00 0.00 0.00 53 1696.0
20240303152536 33 327 4.0 13.0 0.00 0.00 0.00 54 1696.2
20240303152301 33 274 5.0 15.0 0.00 0.00 0.00 54 1696.4
20240303151523 33 304 5.0 15.0 0.00 0.00 0.00 54 1696.4
20240303151017 33 264 5.0 12.0 0.00 0.00 0.00 54 1696.2
20240303150511 34 298 5.0 15.0 0.00 0.00 0.00 53 1695.8
20240303150235 34 318 5.0 15.0 0.00 0.00 0.00 53 1695.7
20240303145500 34 276 5.0 14.0 0.00 0.00 0.00 53 1695.5
20240303144953 33 285 6.0 16.0 0.00 0.00 0.00 53 1695.3
20240303144447 33 357 6.0 16.0 0.00 0.00 0.00 51 1694.9
20240303143941 34 301 6.0 15.0 0.00 0.00 0.00 48 1695.1
20240303143435 34 34 5.0 15.0 0.00 0.00 0.00 47 1694.9
20240303142930 34 328 5.0 15.0 0.00 0.00 0.00 49 1695.1
20240303142654 33 300 5.0 14.0 0.00 0.00 0.00 52 1695.1
20240303141917 33 288 5.0 12.0 0.00 0.00 0.00 60 1695.1
20240303141411 33 291 6.0 15.0 0.00 0.00 0.00 59 1694.5
20240303140904 33 303 6.0 15.0 0.00 0.00 0.00 55 1694.9
20240303140359 34 357 7.0 15.0 0.00 0.00 0.00 59 1695.1
20240303135854 34 359 7.0 15.0 0.00 0.00 0.00 63 1694.9
20240303135347 34 4 6.0 15.0 0.00 0.00 0.00 65 1694.5
20240303134841 34 300 5.0 14.0 0.00 0.00 0.00 65 1694.5
20240303134334 34 247 5.0 13.0 0.00 0.00 0.00 66 1694.5
20240303133829 34 339 4.0 13.0 0.00 0.00 0.00 67 1694.2
20240303133554 33 285 4.0 12.0 0.00 0.00 0.00 67 1694.0
20240303132817 33 274 4.0 12.0 0.00 0.00 0.00 67 1694.0
20240303132310 33 261 3.0 10.0 0.00 0.00 0.00 66 1693.6
20240303131806 33 308 3.0 11.0 0.00 0.00 0.00 65 1692.7
20240303131259 34 293 3.0 11.0 0.00 0.00 0.00 65 1692.8
20240303130753 34 359 4.0 9.0 0.00 0.00 0.00 64 1693.0
20240303130248 34 313 3.0 9.0 0.00 0.00 0.00 63 1693.2
20240303125742 34 278 2.0 7.0 0.00 0.00 0.00 64 1693.4
20240303125236 34 303 3.0 9.0 0.00 0.00 0.00 65 1693.6
20240303124730 34 354 4.0 9.0 0.00 0.00 0.00 65 1693.0
20240303124223 33 286 3.0 10.0 0.00 0.00 0.00 66 1693.8
20240303123718 33 55 5.0 10.0 0.00 0.00 0.00 67 1692.7
20240303123211 33 302 5.0 11.0 0.00 0.00 0.00 68 1692.7
20240303122708 33 300 7.0 12.0 0.00 0.00 0.00 68 1693.6
20240303122209 34 298 9.0 16.0 0.00 0.00 0.00 67 1694.0
20240303121708 35 283 8.0 16.0 0.00 0.00 0.00 68 1694.0
20240303121208 36 265 8.0 16.0 0.00 0.00 0.00 69 1693.4
20240303120939 36 269 8.0 17.0 0.00 0.00 0.00 70 1693.0
20240303120208 36 307 7.0 17.0 0.00 0.00 0.00 70 1692.3
20240303115707 36 249 7.0 16.0 0.00 0.00 0.00 72 1691.7
20240303115208 36 281 9.0 20.0 0.00 0.00 0.00 73 1691.9
20240303115102 40 263 5.0 11.0 0.00 0.00 0.00 55 1691.2
20240303114956 37 277 7.0 20.0 0.00 0.00 0.00 68 1691.5
20240303113708 40 271 5.0 13.0 0.00 0.00 0.00 52 1689.9
20240303113207 41 203 7.0 15.0 0.00 0.00 0.00 52 1689.9
20240303112706 43 254 7.0 15.0 0.00 0.00 0.00 41 1690.0
20240303112209 43 235 6.0 17.0 0.00 0.00 0.00 36 1689.9
20240303111709 43 186 5.0 17.0 0.00 0.00 0.00 35 1689.7
20240303111444 43 219 5.0 11.0 0.00 0.00 0.00 35 1689.1
20240303111340 43 269 5.0 12.0 0.00 0.00 0.00 35 1688.9
20240303110435 43 212 5.0 13.0 0.00 0.00 0.00 35 1689.1
20240303105657 43 189 6.0 13.0 0.00 0.00 0.00 35 1688.9
20240303105152 43 212 5.0 12.0 0.00 0.00 0.00 35 1688.5
20240303104646 42 165 5.0 11.0 0.00 0.00 0.00 35 1688.4
20240303104139 43 194 5.0 15.0 0.00 0.00 0.00 34 1688.2
20240303103635 43 165 5.0 15.0 0.00 0.00 0.00 34 1688.0
20240303103128 43 181 7.0 15.0 0.00 0.00 0.00 33 1687.8
20240303102622 44 177 8.0 20.0 0.00 0.00 0.00 33 1688.0
20240303102116 44 219 10.0 21.0 0.00 0.00 0.00 33 1687.8
20240303101610 44 137 8.0 24.0 0.00 0.00 0.00 33 1687.8
20240303101103 44 172 7.0 24.0 0.00 0.00 0.00 33 1687.6
20240303100557 44 212 7.0 22.0 0.00 0.00 0.00 33 1687.8
20240303100339 44 169 7.0 22.0 0.00 0.00 0.00 33 1687.6
20240303095546 44 196 7.0 16.0 0.00 0.00 0.00 32 1687.6
20240303095039 44 177 8.0 27.0 0.00 0.00 0.00 33 1687.8
20240303094533 44 201 9.0 27.0 0.00 0.00 0.00 33 1687.6
20240303094027 44 158 10.0 27.0 0.00 0.00 0.00 32 1687.8
20240303093521 44 175 9.0 19.0 0.00 0.00 0.00 31 1687.6
20240303093016 44 179 7.0 19.0 0.00 0.00 0.00 31 1687.4
20240303092510 44 193 7.0 19.0 0.00 0.00 0.00 31 1687.4
20240303092004 45 208 7.0 18.0 0.00 0.00 0.00 31 1687.6
20240303091458 45 224 7.0 18.0 0.00 0.00 0.00 31 1687.8
20240303090951 45 212 7.0 17.0 0.00 0.00 0.00 31 1687.8
20240303090716 45 156 7.0 17.0 0.00 0.00 0.00 30 1687.8
20240303085940 45 172 8.0 17.0 0.00 0.00 0.00 30 1687.8
20240303085434 45 165 8.0 25.0 0.00 0.00 0.00 30 1687.8
20240303084927 45 158 7.0 25.0 0.00 0.00 0.00 30 1688.0
20240303084423 45 283 7.0 24.0 0.00 0.00 0.00 30 1688.0
20240303084146 45 216 7.0 17.0 0.00 0.00 0.00 29 1687.8
20240303083410 46 181 8.0 18.0 0.00 0.00 0.00 28 1688.0
20240303082903 46 172 8.0 18.0 0.00 0.00 0.00 28 1688.0
20240303082357 46 236 7.0 15.0 0.00 0.00 0.00 28 1688.4
20240303081851 46 227 7.0 17.0 0.00 0.00 0.00 28 1688.5
20240303081345 46 174 8.0 22.0 0.00 0.00 0.00 27 1688.7
20240303081111 46 197 8.0 22.0 0.00 0.00 0.00 27 1688.7
20240303080333 46 211 8.0 16.0 0.00 0.00 0.00 26 1688.7
20240303075827 46 171 7.0 17.0 0.00 0.00 0.00 26 1688.5
20240303075325 46 129 6.0 17.0 0.00 0.00 0.00 26 1688.5
20240303074832 47 205 6.0 20.0 0.00 0.00 0.00 25 1688.4
20240303074824 47 181 7.0 19.0 0.00 0.00 0.00 26 1688.5
20240303073826 47 227 7.0 20.0 0.00 0.00 0.00 25 1688.4
20240303073323 47 180 8.0 17.0 0.00 0.00 0.00 25 1688.4
20240303072824 47 212 8.0 19.0 0.00 0.00 0.00 24 1688.5
20240303072323 47 191 8.0 21.0 0.00 0.00 0.00 24 1688.4
20240303071823 47 214 8.0 21.0 0.00 0.00 0.00 24 1688.5
20240303071557 47 143 8.0 18.0 0.00 0.00 0.00 24 1688.4
20240303070825 48 150 8.0 19.0 0.00 0.00 0.00 24 1688.4
20240303070325 48 174 8.0 19.0 0.00 0.00 0.00 24 1688.4
20240303065824 48 156 8.0 19.0 0.00 0.00 0.00 23 1688.2
20240303065317 48 198 8.0 19.0 0.00 0.00 0.00 23 1688.2
20240303064813 48 203 7.0 16.0 0.00 0.00 0.00 23 1688.5
20240303064307 48 147 8.0 25.0 0.00 0.00 0.00 23 1688.4
20240303063800 49 198 9.0 25.0 0.00 0.00 0.00 23 1688.5
20240303063255 48 323 8.0 23.0 0.00 0.00 0.00 23 1688.5
20240303062749 49 145 8.0 23.0 0.00 0.00 0.00 23 1688.5
20240303062242 49 194 7.0 15.0 0.00 0.00 0.00 23 1688.5
20240303061736 49 134 7.0 16.0 0.00 0.00 0.00 22 1688.4
20240303061230 49 218 8.0 19.0 0.00 0.00 0.00 22 1688.4
20240303060724 49 155 8.0 19.0 0.00 0.00 0.00 22 1688.5
20240303060218 49 212 8.0 16.0 0.00 0.00 0.00 22 1688.4
20240303055943 49 233 7.0 16.0 0.00 0.00 0.00 22 1688.4
20240303055206 49 186 7.0 19.0 0.00 0.00 0.00 22 1688.5
20240303054700 49 205 8.0 19.0 0.00 0.00 0.00 22 1688.5
20240303054155 49 219 10.0 19.0 0.00 0.00 0.00 22 1688.4
20240303053648 49 174 8.0 20.0 0.00 0.00 0.00 22 1688.2
20240303053142 49 150 7.0 22.0 0.00 0.00 0.00 22 1688.2
20240303052907 49 92 7.0 22.0 0.00 0.00 0.00 23 1688.2
20240303052131 49 152 7.0 19.0 0.00 0.00 0.00 23 1688.0
20240303051625 49 250 7.0 19.0 0.00 0.00 0.00 22 1688.4
20240303051348 49 206 8.0 17.0 0.00 0.00 0.00 22 1688.4
20240303050612 49 196 8.0 18.0 0.00 0.00 0.00 23 1688.4
20240303050107 49 199 8.0 18.0 0.00 0.00 0.00 23 1688.5
20240303045600 49 168 9.0 18.0 0.00 0.00 0.00 23 1688.4
20240303045053 48 230 8.0 17.0 0.00 0.00 0.00 23 1688.4
20240303044818 48 187 8.0 18.0 0.00 0.00 0.00 24 1688.4
20240303044041 48 146 7.0 18.0 0.00 0.00 0.00 24 1688.5
20240303043537 49 196 9.0 19.0 0.00 0.00 0.00 23 1688.7
20240303043030 49 174 8.0 19.0 0.00 0.00 0.00 23 1688.7
20240303042523 48 155 8.0 16.0 0.00 0.00 0.00 24 1688.7
20240303042018 49 172 8.0 16.0 0.00 0.00 0.00 24 1688.9
20240303041512 49 179 9.0 22.0 0.00 0.00 0.00 23 1688.9
20240303041007 49 148 9.0 22.0 0.00 0.00 0.00 23 1688.9
20240303040501 48 162 7.0 18.0 0.00 0.00 0.00 24 1689.1
20240303035954 48 132 7.0 14.0 0.00 0.00 0.00 24 1689.1
20240303035449 48 176 8.0 15.0 0.00 0.00 0.00 23 1689.5
20240303034942 49 164 9.0 15.0 0.00 0.00 0.00 23 1689.7
20240303034436 49 177 8.0 18.0 0.00 0.00 0.00 23 1689.9
20240303033930 49 186 7.0 19.0 0.00 0.00 0.00 23 1689.7
20240303033654 49 163 7.0 14.0 0.00 0.00 0.00 23 1689.7
20240303032919 49 200 7.0 15.0 0.00 0.00 0.00 22 1690.0
20240303032413 49 146 8.0 21.0 0.00 0.00 0.00 22 1689.9
20240303031905 49 186 9.0 21.0 0.00 0.00 0.00 22 1690.0
20240303031359 50 169 8.0 20.0 0.00 0.00 0.00 22 1689.9
20240303030854 50 193 8.0 20.0 0.00 0.00 0.00 22 1690.0
20240303030619 50 173 8.0 21.0 0.00 0.00 0.00 21 1690.2
20240303025842 50 156 7.0 21.0 0.00 0.00 0.00 21 1690.4
20240303025336 49 185 6.0 16.0 0.00 0.00 0.00 21 1690.6
20240303024831 50 203 6.0 16.0 0.00 0.00 0.00 21 1690.4
20240303024554 50 181 5.0 15.0 0.00 0.00 0.00 20 1690.6
20240303023817 50 205 6.0 15.0 0.00 0.00 0.00 20 1690.6
20240303023312 51 171 6.0 14.0 0.00 0.00 0.00 20 1690.6
20240303022806 51 214 6.0 12.0 0.00 0.00 0.00 19 1690.6
20240303022301 51 214 6.0 13.0 0.00 0.00 0.00 19 1690.6
20240303022025 51 170 6.0 17.0 0.00 0.00 0.00 19 1690.8
20240303021248 52 281 7.0 18.0 0.00 0.00 0.00 18 1690.8
20240303021014 52 196 8.0 24.0 0.00 0.00 0.00 18 1690.8
20240303020236 52 202 9.0 24.0 0.00 0.00 0.00 18 1690.6
20240303015731 52 146 7.0 22.0 0.00 0.00 0.00 18 1690.8
20240303015223 52 246 8.0 26.0 0.00 0.00 0.00 18 1690.8
20240303014717 52 222 8.0 26.0 0.00 0.00 0.00 18 1691.0
20240303014212 52 206 8.0 21.0 0.00 0.00 0.00 18 1691.2
20240303013706 52 227 9.0 21.0 0.00 0.00 0.00 18 1691.3
20240303013200 52 170 9.0 21.0 0.00 0.00 0.00 18 1691.5
20240303012653 52 180 9.0 24.0 0.00 0.00 0.00 18 1691.3
20240303012149 52 119 10.0 24.0 0.00 0.00 0.00 18 1691.2
20240303011643 52 205 9.0 21.0 0.00 0.00 0.00 18 1691.5
20240303011408 53 176 10.0 26.0 0.00 0.00 0.00 18 1691.3
20240303010909 53 207 10.0 26.0 0.00 0.00 0.00 17 1691.3
20240303010137 53 211 8.0 19.0 0.00 0.00 0.00 17 1691.5
20240303005638 53 218 8.0 20.0 0.00 0.00 0.00 16 1691.5
20240303005138 53 243 9.0 22.0 0.00 0.00 0.00 16 1691.7
20240303004642 54 189 8.0 21.0 0.00 0.00 0.00 15 1692.1
20240303004637 54 158 9.0 22.0 0.00 0.00 0.00 16 1692.1
20240303003638 54 220 8.0 21.0 0.00 0.00 0.00 14 1692.1
20240303003140 55 185 9.0 23.0 0.00 0.00 0.00 14 1691.9
20240303002638 55 156 9.0 23.0 0.00 0.00 0.00 14 1691.9
20240303002140 55 228 9.0 20.0 0.00 0.00 0.00 14 1691.9
20240303001640 55 201 8.0 20.0 0.00 0.00 0.00 13 1692.1
20240303001137 56 214 6.0 14.0 0.00 0.00 0.00 13 1692.3
20240303000910 56 290 6.0 13.0 0.00 0.00 0.00 13 1692.3
20240303000138 56 254 6.0 13.0 0.00 0.00 0.00 13 1692.7
20240302235635 56 262 6.0 15.0 0.00 0.00 0.00 13 1692.7
20240302235135 57 250 6.0 15.0 0.00 0.00 0.00 13 1692.7
20240302234634 57 209 7.0 21.0 0.00 0.00 0.00 12 1692.8
20240302234135 57 212 7.0 21.0 0.00 0.00 0.00 12 1692.7
20240302233906 57 239 8.0 24.0 0.00 0.00 0.00 12 1692.7
20240302233135 57 188 9.0 24.0 0.00 0.00 0.00 12 1692.3
20240302232908 58 226 9.0 24.0 0.00 0.00 0.00 12 1692.1
20240302232135 58 262 10.0 32.0 0.00 0.00 0.00 12 1692.3
20240302231637 58 193 10.0 32.0 0.00 0.00 0.00 12 1691.9
20240302231132 58 230 9.0 25.0 0.00 0.00 0.00 12 1692.1
20240302230903 59 237 9.0 25.0 0.00 0.00 0.00 11 1692.3
20240302230401 59 151 10.0 25.0 0.00 0.00 0.00 11 1692.5
20240302225901 60 136 10.0 22.0 0.00 0.00 0.00 11 1692.5
20240302225130 60 205 8.0 21.0 0.00 0.00 0.00 11 1692.5
20240302224633 60 229 8.0 21.0 0.00 0.00 0.00 11 1692.5
20240302224131 60 155 10.0 20.0 0.00 0.00 0.00 11 1692.3
20240302223630 60 222 9.0 20.0 0.00 0.00 0.00 11 1692.7
20240302223134 61 204 9.0 22.0 0.00 0.00 0.00 11 1692.5
20240302222626 61 196 9.0 26.0 0.00 0.00 0.00 11 1692.1
20240302222127 61 207 7.0 26.0 0.00 0.00 0.00 11 1692.1
20240302221626 62 216 6.0 15.0 0.00 0.00 0.00 11 1692.1
20240302221359 62 217 8.0 22.0 0.00 0.00 0.00 11 1692.3
20240302220627 61 214 8.0 22.0 0.00 0.00 0.00 11 1692.7
20240302220127 62 196 7.0 16.0 0.00 0.00 0.00 11 1692.7
20240302215628 62 263 6.0 18.0 0.00 0.00 0.00 11 1692.8
20240302215126 62 150 5.0 18.0 0.00 0.00 0.00 12 1693.0
20240302214628 62 217 5.0 14.0 0.00 0.00 0.00 11 1693.4
20240302214133 62 224 8.0 19.0 0.00 0.00 0.00 10 1693.6
20240302214127 62 192 7.0 19.0 0.00 0.00 0.00 11 1693.6
20240302213127 62 210 6.0 17.0 0.00 0.00 0.00 11 1694.0
20240302212627 62 193 7.0 22.0 0.00 0.00 0.00 11 1694.0
20240302212128 62 160 8.0 22.0 0.00 0.00 0.00 12 1694.2
20240302211858 62 125 5.0 15.0 0.00 0.00 0.00 12 1694.2
20240302211127 62 219 5.0 12.0 0.00 0.00 0.00 13 1694.3
20240302210626 62 168 6.0 18.0 0.00 0.00 0.00 12 1694.5
20240302210127 61 202 8.0 18.0 0.00 0.00 0.00 13 1694.9
20240302205624 61 158 9.0 17.0 0.00 0.00 0.00 13 1694.7
20240302205355 61 128 10.0 19.0 0.00 0.00 0.00 13 1694.5
20240302204626 61 196 10.0 19.0 0.00 0.00 0.00 13 1694.9
20240302204124 61 169 9.0 18.0 0.00 0.00 0.00 13 1695.3
20240302203624 61 152 7.0 17.0 0.00 0.00 0.00 13 1695.5
20240302203124 61 164 6.0 15.0 0.00 0.00 0.00 12 1695.7
20240302202624 61 248 5.0 11.0 0.00 0.00 0.00 12 1695.8
20240302202125 60 359 5.0 13.0 0.00 0.00 0.00 12 1696.0
20240302201624 61 297 6.0 16.0 0.00 0.00 0.00 10 1696.6
20240302201124 62 226 6.0 16.0 0.00 0.00 0.00 10 1696.8
20240302200626 62 206 5.0 13.0 0.00 0.00 0.00 11 1696.8